TimeCDT,TemperatureF,Dew PointF,Humidity,Sea Level PressureIn,VisibilityMPH,Wind Direction,Wind SpeedMPH,Gust SpeedMPH,PrecipitationIn,Events,Conditions,WindDirDegrees,DateUTC
12:53 AM,68.0,61.0,78,30.01,10.0,SSW,9.2,18.4,N/A,,Clear,210,2012-11-03 05:53:00
1:53 AM,66.9,62.1,84,30.00,10.0,SW,6.9,-,N/A,,Clear,230,2012-11-03 06:53:00
2:53 AM,64.9,62.1,90,30.00,10.0,SSW,4.6,-,N/A,,Clear,200,2012-11-03 07:53:00
3:53 AM,64.9,62.1,90,30.01,10.0,SW,6.9,-,N/A,,Clear,220,2012-11-03 08:53:00
4:53 AM,64.0,62.1,93,30.03,10.0,SSW,4.6,-,N/A,,Clear,210,2012-11-03 09:53:00
5:53 AM,63.0,61.0,93,30.05,10.0,SSW,4.6,-,N/A,,Clear,200,2012-11-03 10:53:00
6:53 AM,63.0,62.1,97,30.06,10.0,South,3.5,-,N/A,,Clear,190,2012-11-03 11:53:00
7:53 AM,63.0,62.1,97,30.07,10.0,SSW,4.6,-,N/A,,Clear,200,2012-11-03 12:53:00
8:53 AM,66.0,64.0,93,30.09,10.0,Calm,Calm,-,N/A,,Clear,0,2012-11-03 13:53:00
9:53 AM,71.1,66.0,84,30.10,10.0,SW,9.2,-,N/A,,Clear,230,2012-11-03 14:53:00
10:53 AM,75.0,66.9,76,30.10,10.0,WSW,9.2,-,N/A,,Clear,240,2012-11-03 15:53:00
11:53 AM,77.0,66.9,71,30.09,10.0,SW,10.4,-,N/A,,Partly Cloudy,230,2012-11-03 16:53:00
12:53 PM,79.0,64.0,60,30.06,10.0,West,12.7,-,N/A,,Partly Cloudy,260,2012-11-03 17:53:00
1:53 PM,80.1,64.0,58,30.03,10.0,Variable,5.8,-,N/A,,Clear,0,2012-11-03 18:53:00
2:53 PM,81.0,62.1,52,30.01,10.0,West,6.9,-,N/A,,Partly Cloudy,270,2012-11-03 19:53:00
3:53 PM,80.1,63.0,56,30.00,10.0,West,5.8,-,N/A,,Clear,270,2012-11-03 20:53:00
4:35 PM,80.6,62.6,54,30.00,10.0,WSW,3.5,-,N/A,Thunderstorm,Thunderstorm,250,2012-11-03 21:35:00
4:53 PM,79.0,64.9,62,29.99,10.0,ESE,5.8,-,N/A,,Clear,120,2012-11-03 21:53:00
5:53 PM,75.9,66.0,71,30.01,10.0,SE,5.8,-,N/A,,Scattered Clouds,140,2012-11-03 22:53:00
6:53 PM,73.9,64.0,71,30.02,10.0,South,4.6,-,N/A,,Clear,180,2012-11-03 23:53:00
7:53 PM,73.9,63.0,68,30.02,10.0,SSW,8.1,-,N/A,,Clear,200,2012-11-04 00:53:00
8:53 PM,73.0,63.0,71,30.04,10.0,SW,18.4,25.3,N/A,,Clear,220,2012-11-04 01:53:00
9:53 PM,70.0,60.1,71,30.03,10.0,West,8.1,-,N/A,,Clear,260,2012-11-04 02:53:00
10:53 PM,68.0,57.9,70,30.04,10.0,WSW,5.8,-,N/A,,Clear,240,2012-11-04 03:53:00
11:53 PM,66.0,59.0,78,30.04,10.0,NNW,3.5,-,N/A,,Clear,330,2012-11-04 04:53:00